Tracking 22458 objects as of 4-Mar-2021
HD Live streaming from Space Station
objects crossing your sky now

ATLAS CENTAUR R/B

Track ATLAS CENTAUR R/B now!


NORAD ID: 6797
Int'l Code: 1973-058B
Perigee: 502.0 km
Apogee: 36,452.9 km
Inclination: 27.3 °
Period: 649.7 minutes
Semi major axis: 24848 km
RCS: 15.456 m2 (large)
Launch date: August 23, 1973
Source: United States (US)
Launch site: AIR FORCE EASTERN TEST RANGE (AFETR)

Note: This is a ROCKET BODY
aabbcc
Your satellite tracking list
Your tracking list is empty




NASA's NSSDC Master Catalog

Two Line Element Set (TLE):
1 06797U 73058B   21062.12520528  .00000085  00000-0  29876-3 0  9996
2 06797  27.3289 109.9348 7234024 313.4891   5.6557  2.21642482384450
Source of the keplerian elements: AFSPC